Regional Weather Roundup
Issued by NWS Kansas City/Pleasant Hill, MO

Home | Current Version | Previous Version | Graphics & Text | Print | Product List | Glossary Off
Versions: 1 2 3 4 5 6 7 8 9 10 11 12 13 14 15 16 17 18 19 20 21 22 23 24 25 26 27 28 29 30 31 32 33 34 35 36 37 38 39 40 41 42 43 44 45 46 47 48 49 50

605
ASUS43 KEAX 172210
RWREAX

WEATHER ROUNDUP FOR EASTERN KANSAS AND NORTHWEST MISSOURI
NATIONAL WEATHER SERVICE KANSAS CITY/PLEASANT HILL MO
400 PM CST FRI NOV 17 2017

KSZ040-057-103>105-MOZ028-029-037-043-172300-
...KANSAS CITY METROPOLITAN AREA...

CITY           SKY/WX    TMP DP  RH WIND       PRES   REMARKS
K.C. INTL      CLOUDY    68  59  73 S13       29.50S
K.C. DOWNTOWN  CLOUDY    70  58  65 S13       29.49F
LEES SUMMIT    CLOUDY    68  60  75 S17       29.51F
OLATHE - IXD   CLOUDY    68  60  75 S9        29.51F
OLATHE - OJC   CLOUDY    67  59  75 S14       29.51F
LAWRENCE       CLOUDY    72  59  63 S8G20     29.48F

$$

MOZ001>008-011>017-020>025-030>033-038>040-044>046-053-054-172300-
...NORTHERN AND CENTRAL MISSOURI...

CITY           SKY/WX    TMP DP  RH WIND       PRES   REMARKS
ST. JOSEPH     CLOUDY    65  57  75 S7        29.49F
MOSBY          CLOUDY    64  57  77 SE3       29.51F
WARRENSBURG    CLOUDY    66  57  72 S13       29.53S
WHITEMAN AFB   MOCLDY    65  58  78 S15       29.50F
CLINTON        CLOUDY    68  59  73 MISG      29.57F
SEDALIA        CLOUDY    65  59  81 S18       29.56F
WARSAW         NOT AVBL
CHILLICOTHE      N/A     58  57  97 E3        29.54F
KIRKSVILLE     CLOUDY    54  53  97 SE12      29.57F

$$

MOZ041-047>049-056>058-063>065-088>090-097-172300-
...EASTERN AND SOUTHERN MISSOURI...

CITY           SKY/WX    TMP DP  RH WIND       PRES   REMARKS
ST. LOUIS INTL CLOUDY    54  45  71 SE13      29.72F
SPIRIT OF STL  CLOUDY    60  50  69 S8        29.69F
COLUMBIA       CLOUDY    63  55  75 S16G24    29.60F
JEFFERSON CITY CLOUDY    65  55  70 S12       29.61F
ROLLA          CLOUDY    60  55  83 S14       29.66F
OSAGE BEACH    CLOUDY    64  56  75 S12       29.63F
SPRINGFIELD    CLOUDY    67  60  78 S15       29.62F
BRANSON        CLOUDY    66  59  77 S14G21    29.68F
JOPLIN         CLOUDY    73  63  70 S18       29.59R
WEST PLAINS    CLOUDY    59  57  93 S15       29.75F FOG

$$

IAZ060-094-KSZ022-034>040-054-083-096-NEZ052-066-093-172300-
...KANSAS...SOUTHEAST NEBRASKA AND IOWA...

CITY           SKY/WX    TMP DP  RH WIND       PRES   REMARKS
TOPEKA         CLOUDY    73  58  59 S7        29.46F
MANHATTAN      MOSUNNY   75  53  46 SW16      29.45S
EMPORIA        CLOUDY    73  53  49 SW18      29.48F
CHANUTE        MOSUNNY   75  58  55 SW14      29.52F
WICHITA        CLOUDY    74  52  46 S14       29.51S
OMAHA          CLOUDY    59  52  77 NE3       29.51R HAZE
LINCOLN        CLOUDY    63  50  62 N12       29.50S
FALLS CITY     CLEAR     65  56  72 SE6       29.47S
LAMONI         FOG       53  53 100 SE9       29.52S VSB 1/4
DES MOINES     CLOUDY    51  49  92 SE6       29.54F FOG

$$





USA.gov is the U.S. government's official web portal to all federal, state and local government web resources and services.